Other Public Products
Issued by NWS Grand Forks, ND

Home | Current Version | Previous Version | Graphics & Text | Print | Product List | Glossary On
Versions: 1 2 3 4 5 6 7 8 9 10 11 12 13 14 15 16 17 18 19 20 21 22 23 24 25 26 27 28 29 30 31 32 33 34 35 36 37 38 39 40 41 42 43 44 45 46 47 48 49 50
000
FPUS83 KFGF 180610
OPUFGF
PRAIRIE TO PINES WEATHER ROUNDUP
NATIONAL WEATHER SERVICE EASTERN NORTH DAKOTA/GRAND FORKS ND
100 AM CDT FRI AUG 18 2017

 **SATELLITE DATA USED TO AUGMENT SKY COVER AT AUTOMATED STATIONS**
 *****  WEATHER ACROSS EASTERN NORTH DAKOTA  *****

CITY           SKY/WX    TMP DP  RH WIND       PRES   REMARKS
GRAND FORKS    FAIR      62  60  93 CALM      29.82F
6HR MIN TEMP:  62; 6HR MAX TEMP:  80;

GRAND FORKS AF PTCLDY    68  59  73 VRB3      29.87F
GRAND CITY NWS NOT AVBL
BUXTON           N/A     63  60  90 SW3         N/A
DEVILS LAKE    FAIR      69  59  70 S5        29.87S
6HR MIN TEMP:  63; 6HR MAX TEMP:  77;

FARGO          FAIR      62  59  90 CALM      29.84F
6HR MIN TEMP:  62; 6HR MAX TEMP:  77;

WAHPETON ARPT  FAIR      59  55  88 CALM      29.87R
$$

 *****  WEATHER ACROSS CENTRAL AND WESTERN NORTH DAKOTA  *****

CITY           SKY/WX    TMP DP  RH WIND       PRES   REMARKS
JAMESTOWN      FAIR      58  56  93 NW3       29.87R
6HR MIN TEMP:  58; 6HR MAX TEMP:  76;

BISMARCK       FAIR      63  59  87 CALM      29.84S
6HR MIN TEMP:  61; 6HR MAX TEMP:  77;

MINOT          TSTM      65  58  78 N7        29.89R
6HR MIN TEMP:  65; 6HR MAX TEMP:  81; 6HR PCP:  0.03;

MINOT AFB      FAIR      63  58  82 SW5       29.87R THUNDER
6HR MIN TEMP:  63; 6HR MAX TEMP:  81; 6HR PCP:  0.01;

GARRISON         N/A     61  54  77 N30G44    29.84R
6HR MIN TEMP:  61; 6HR MAX TEMP:  78;

WILLISTON      FAIR      59  54  83 NE3       29.92S
6HR MIN TEMP:  59; 6HR MAX TEMP:  80; 6HR PCP: TRACE;

DICKINSON      FAIR      58  49  72 NW7       29.92R
6HR MIN TEMP:  58; 6HR MAX TEMP:  78;

HETTINGER      FAIR      57  48  72 NW3       29.94R
6HR MIN TEMP:  56; 6HR MAX TEMP:  82;

$$

 *****  OTHER OBSERVATIONS NORTHEAST NORTH DAKOTA  *****

CITY           SKY/WX    TMP DP  RH WIND       PRES   REMARKS
WALHALLA       FAIR      57  59 100 CALM      29.83F
LANGDON        FAIR      55  55 100 S5        29.87S
CAVALIER       FAIR      57  57 100 CALM      29.83S
GRAFTON        FAIR      64  63  94 CALM      29.85S
CANDO          FAIR      61  61 100 CALM      29.88F
FORT TOTTEN      N/A     66  57  71 S2        29.95S
ROLLA          FAIR      55  55 100 CALM      29.88F
RUGBY          CLOUDY    64  61  88 SW5       29.87S
 ***** THE ABOVE OBSERVATIONS ARE NON NWS ARE NOT QUALITY
        CONTROLLED AND MAY MIS-REPORT RAIN FOR SNOW...
$$

 *****  OTHER OBSERVATIONS SOUTHEAST NORTH DAKOTA *****

CITY           SKY/WX    TMP DP  RH WIND       PRES   REMARKS
COOPERSTOWN    FAIR      61  61 100 CALM      29.87S
VALLEY CITY      N/A     61  61 100 SW7       29.88S
OAKES          NOT AVBL
GWINNER        CLEAR     59  59 100 CALM      29.87S
SHEYENNE NWR     N/A     59  59 100 SW2       29.95S
BUFFALO          N/A     63  56  79 E6          N/A
WYNDMERE       NOT AVBL
 ***** THE ABOVE OBSERVATIONS ARE NON NWS ARE NOT QUALITY
       CONTROLLED AND MAY MIS-REPORT RAIN FOR SNOW...
$$

  *****  WEATHER ACROSS NORTHERN MINNESOTA  *****

CITY           SKY/WX    TMP DP  RH WIND       PRES   REMARKS
FLAG ISLAND    FAIR      64  55  72 CALM      29.80S
WARROAD        FAIR      57  54  88 CALM      29.83S
ROSEAU         FAIR      57  52  82 CALM      29.83S
HALLOCK        FAIR      55  54  94 CALM      29.82F
THF RVR FALLS  FAIR      60  56  86 CALM      29.85F
6HR MIN TEMP:  59; 6HR MAX TEMP:  72;

HALSTAD        NOT AVBL
FOSSTON        FAIR      54  52  94 S3        29.85F
BAUDETTE       FAIR      55  54  96 W3        29.82R
6HR MIN TEMP:  54; 6HR MAX TEMP:  72;

WASKISH        FAIR      54  52  94 CALM      29.83F
CROOKSTON      FAIR      61  57  88 CALM      29.84F
$$
  *****  WEATHER ACROSS CENTRAL AND WEST MINNESOTA  *****

CITY           SKY/WX    TMP DP  RH WIND       PRES   REMARKS
BEMIDJI        FAIR      53  52  96 CALM      29.84F FOG
PARK RAPIDS    FAIR      57  54  89 W5        29.85S
6HR MIN TEMP:  56; 6HR MAX TEMP:  73;

WADENA         FAIR      57  57 100 CALM      29.86S
DETROIT LAKES  FAIR      61  59  94 CALM      29.87F
MOORHEAD       FAIR      63  57  82 CALM      29.85F
FERGUS FALLS   FAIR      61  61 100 CALM      29.87R
ELBOW LAKE     MOCLDY    59  59  99 SW3       29.88S
MORRIS MN      FAIR      63  61  94 W8        29.88R
STAPLES        FAIR      55  55 100 CALM      29.86R
WHEATON        MOCLDY    63  59  88 SW3       29.89S
$$
  *****  WEATHER ELSEWHERE ACROSS MINNESOTA  *****

CITY           SKY/WX    TMP DP  RH WIND       PRES   REMARKS
DULUTH         FAIR      59  58  96 NW9       29.79R
6HR MIN TEMP:  59; 6HR MAX TEMP:  61; 6HR PCP: TRACE;

INTRNTL FALLS  FAIR      50  49  96 CALM      29.82R FOG
6HR MIN TEMP:  49; 6HR MAX TEMP:  57;

ELY            CLOUDY    59  57  94 NW5       29.79S
CLOQUET        FAIR      57  55  94 W9        29.80S
BRAINERD       FAIR      55  54  96 SW5       29.84S
6HR MIN TEMP:  55; 6HR MAX TEMP:  70;

HIBBING        FOG       50  50 100 CALM      29.81S VSB 3/4
6HR MIN TEMP:  51; 6HR MAX TEMP:  62;

ALEXANDRIA     FAIR      60  59  96 SW5       29.89S
6HR MIN TEMP:  58; 6HR MAX TEMP:  73;

SAINT CLOUD    FAIR      57  57 100 CALM      29.85S
6HR MIN TEMP:  56; 6HR MAX TEMP:  71;

MINNEAPOLIS    FAIR      63  58  83 W5        29.84F
6HR MIN TEMP:  63; 6HR MAX TEMP:  72;

$$

  *****  WEATHER ACROSS SOUTH DAKOTA  *****

CITY           SKY/WX    TMP DP  RH WIND       PRES   REMARKS
SIOUX FALLS    FAIR      67  61  81 N10       29.95R
6HR MIN TEMP:  62; 6HR MAX TEMP:  78; 6HR PCP: TRACE;

BROOKINGS      LGT RAIN  63  57  81 SW8       29.94F
WATERTOWN      FAIR      64  57  78 S12       29.89F
6HR MIN TEMP:  62; 6HR MAX TEMP:  75;

HURON          CLOUDY    64  57  78 SE10      29.87F
6HR MIN TEMP:  62; 6HR MAX TEMP:  77; 6HR PCP:  0.09;

SISSETON         N/A     61  60  97 S3        29.87S
ABERDEEN       FAIR      63  61  93 S7        29.88R
6HR MIN TEMP:  62; 6HR MAX TEMP:  77;

MITCHELL       LGT RAIN  65  62  90 S8        29.95R
PIERRE         FAIR      66  59  78 E7        29.90R
6HR MIN TEMP:  65; 6HR MAX TEMP:  77; 6HR PCP:  0.01;

MOBRIDGE       FAIR      67  62  84 SE10      29.86R
RAPID CITY     FAIR      61  48  62 NW10      29.99R
6HR MIN TEMP:  58; 6HR MAX TEMP:  76; 6HR PCP:  0.02;

$$

  *****  SOME WEATHER IN NEARBY STATES *****

CITY           SKY/WX    TMP DP  RH WIND       PRES   REMARKS
GLASGOW MT     FAIR      64  44  48 NE9       29.95R
6HR MIN TEMP:  64; 6HR MAX TEMP:  84;

GREAT FALLS MT FAIR      60  37  42 W5        30.04S
6HR MIN TEMP:  60; 6HR MAX TEMP:  84;

CHEYENNE WY    FAIR      58  44  60 W5        30.21F
6HR MIN TEMP:  58; 6HR MAX TEMP:  79;

SCOTTSBLUFF NE FAIR      59  50  72 NW7       30.09R
6HR MIN TEMP:  59; 6HR MAX TEMP:  88;

OMAHA NE       FAIR      65  61  87 CALM      29.94R
6HR MIN TEMP:  65; 6HR MAX TEMP:  82;

DES MOINES IA  FAIR      67  61  81 W7        29.91R
6HR MIN TEMP:  67; 6HR MAX TEMP:  81;

DAVENPORT IA   FAIR      66  62  87 W8        29.86F
6HR MIN TEMP:  66; 6HR MAX TEMP:  76;

CHICAGO IL     FAIR      72  63  73 W12       29.77S
6HR MIN TEMP:  72; 6HR MAX TEMP:  80;

EAU CLAIRE WI  CLOUDY    65  59  81 NW13G22   29.79S
6HR MIN TEMP:  64; 6HR MAX TEMP:  66;

LA CROSSE WI   CLOUDY    70  63  78 NW13      29.80R
6HR MIN TEMP:  69; 6HR MAX TEMP:  73; 6HR PCP:  0.01;

$$

  *****  SOME NATIONAL WEATHER *****

CITY           SKY/WX    TMP DP  RH WIND       PRES   REMARKS
LA GUARDIA NY  CLOUDY    77  74  90 S10       29.93F
6HR MIN TEMP:  75; 6HR MAX TEMP:  77;



USA.gov is the U.S. government's official web portal to all federal, state and local government web resources and services.